Location: Mahannah Oil Field
(37.4664°N, 96.6003°W)
Time: 01:01:17
(UTC+00:00)

deb Explorer IX - Pass Details

Date: 29 January 2021
Orbit: 537 x 1102 km, 38.8° (Epoch: 25 February)

Event Time Altitude Azimuth Distance (km) Brightness Sun altitude
Rises 19:18:13 0° 195° (SSW) 3,874 ? 34.1°
Reaches altitude 10° 19:22:01 10° 177° (S) 2,945 ? 33.9°
Maximum altitude 19:26:27 17° 139° (SE) 2,445 ? 33.7°
Drops below altitude 10° 19:30:49 10° 102° (ESE) 2,904 ? 33.5°
Sets 19:34:30 0° 83° (E) 3,800 ? 33.3°
